User: anonymous   Login
Location: Unspecified
(0.0000°N, 0.0000°E)
Time: 04:55:34
(UTC+02:00)
Language:

NOAA 12 - Orbit

View from above orbital plane
View from above orbital plane
View from above satellite
View from above satellite

Ground track
Ground track

The orbit data is extracted from the following two-line orbital elements,

1 21263U 91032A   17147.59625623 -.00000023 +00000-0 +83606-5 0  9991
2 21263 098.5648 172.0952 0013436 347.1434 012.9402 14.25842196353534
Epoch (UTC): 27 May 2017 14:18:36
Eccentricity: 0.0013436
inclination: 98.5648°
perigee height: 796 km
apogee height: 815 km
right ascension of ascending node: 172.0952°
argument of perigee: 347.1434°
revolutions per day: 14.25842196
mean anomaly at epoch: 12.9402°
orbit number at epoch: 35353

The dashed part of the orbit path shows where the satellite is in the earth's shadow,  

DLR